Weather in Komsomolskiy

Russia / Samara Oblast     53°13′55″N   50°50′35″E
temp.,
°C
wind,
m/s
gust,
m/s
humid.,
%
clouds,
%
prec.,
mm/h
press.,
hPa
HPBL,
m
4 march, thu
thu401:00−10w349586 0.0 100759
04:00−12wsw349553 0.0 100857
07:00−12sw4109642 0.0 1007183
10:00−7sw7139366 0.3 1006447
13:00−3sw81392100 0.1 1004757
16:00−1sw91596100 0.6 10021049
19:00+1wsw101797100 0.9 1000981
22:000wsw91597100 1.6 1001917
5 march, fri
fri501:00−1wsw81491100 0.2 1001683
04:00−1sw81392100 0.6 1001682
07:00−1sw61297100 0.3 1001561
10:000wsw58100100 1.1 1001528
13:00−1nne4694100 1.5 1003415
16:00−2n469399 1.7 1005491
19:00−5nnw2391100 0.1 100844
22:00−11nw239267 0.1 101121
6 march, sat
sat601:00−13wnw22896 0.0 101321
04:00−14wsw228319 0.0 101420
07:00−14sw239268 0.0 101420
10:00−10wsw359471 0.0 1015190
13:00−7w239299 0.0 1015331
16:00−6nnw3586100 0.1 1014417
19:00−11nnw3390100 0.0 101441
22:00−13n3593100 0.0 101493
7 march, sun
sun701:00−16nnw349168 0.0 101341
04:00−18nnw339534 0.0 101423
07:00−20nw23970 0.0 101520
10:00−16w22920 0.0 1015114
13:00−12ssw359020 0.0 1014310
16:00−10sw598750 0.0 1013448
19:00−13ssw499448 0.0 1012186
22:00−9ssw6139374 0.1 1011509
8 march, mon
mon801:00−6ssw81591100 0.2 1006833
04:00−6sw91694100 1.1 1003932
07:00−4sw91595100 1.1 1003929
10:00−6w488099 1.7 1005459
13:00−4ssw367331 0.0 1006422
16:00−3s7129666 0.9 1003825
19:00−2sw91695100 1.8 1000986
22:00−6w91672100 2.4 1001909